CAPE
862 1293 595 639 721 894 936 1276 710 1398 1535 1411 1866 1649 1747 2050 1345 1323 1502 1657 1759 1586
815 907 867 806 850 1421 1235 798 543 1566 1534 1535 1668 1498 1550 1843 1498 1051 1302 1326 1536 1465
1033 752 823 909 1342 1172 1328 1355 1076 1384 1555 1499 1477 1738 1571 1608 1474 1260 1229 1284 1218 1074
754 612 948 798 981 915 1078 888 1342 1202 1337 1342 1481 1547 1354 1298 1533 1288 1004 754 808 975
431 289 835 897 777 709 821 1257 1174 1388 1599 1547 1480 1512 1354 1441 1432 1077 1175 1272 1328 878
572 846 763 1026 756 763 740 1085 1355 1485 1365 1390 1264 1208 1098 1148 1142 1117 1055 1017 889 955
970 816 1069 987 1238 1408 1120 768 1156 1270 1407 902 777 989 1039 987 1018 1157 998 839 846 701
961 982 1055 1005 975 956 912 623 516 932 1124 1185 1177 1015 635 824 836 708 672 520 595 671
824 931 1049 899 899 951 1157 1051 1242 1128 763 862 746 552 415 478 609 476 359 415 405 420
916 639 735 813 752 932 758 706 660 480 340 336 337 219 135 115 100 84 60 140 137 179
597 542 669 714 748 737 851 603 307 315 364 158 80 83 80 93 79 36 60 67 20 4
369 383 459 537 514 538 509 367 305 300 297 205 132 114 137 108 66 9 1 23 33 24
247 266 337 346 212 102 129 199 176 131 138 79 42 21 27 50 38 26 1 17 14 20
143 124 105 101 44 40 101 159 116 91 76 65 30 29 32 44 25 3 10 16 3 3
CIN
-49 -22 -64 -73 -82 -73 -18 -29 -7 -52 -32 -34 -18 -33 -27 -14 -31 -30 -23 -26 -30 -56
-51 -30 -42 -46 -52 -23 -23 -21 -21 -42 -25 -19 -19 -17 -26 -7 -9 -15 -22 -15 -14 -26
-36 -45 -55 -17 -30 -25 -24 -24 -63 -28 -15 -14 -24 -10 -14 -12 -11 -16 -28 -15 -27 -7
-41 -54 -49 -38 -36 -33 -33 -42 -28 -34 -30 -24 -17 -11 -14 -21 -17 -19 -3 -34 -33 -24
-68 -59 -47 -28 -56 -53 -72 -55 -42 -38 -30 -24 -14 -15 -16 -19 -24 -20 -14 -24 -14 -31
-64 -45 -37 -36 -66 -90 -76 -47 -33 -23 -24 -25 -24 -19 -20 -23 -27 -24 -25 -18 -16 -22
-34 -25 -15 -25 -32 -14 -29 -28 -44 -35 -20 -37 -45 -37 -33 -30 -32 -21 -18 -22 -15 -22
-17 -29 -32 -25 -27 -25 -39 -32 -54 -36 -20 -20 -8 -4 -12 -28 -27 -26 -24 -36 -42 -29
-22 -8 -9 -14 -14 -30 -16 -22 -19 -9 -11 -3 -1 -6 -9 -18 -11 -11 -28 -24 -31 -29
-8 -28 -29 -31 -27 -26 -34 -32 -24 -27 -26 -26 -19 -25 -20 -18 -18 -16 -49 -48 -28 -44
-11 -5 -11 -14 -15 -21 -19 -27 -42 -27 -22 -17 -26 -39 -49 -14 -19 -11 -28 -17 -32 -31
-21 -29 -16 -19 -17 -16 -9 -8 -14 -20 -8 -0 -0 -0 -0 -0 -3 -5 -0 -21 -21 -10
-1 -6 -6 -0 -0 -19 -50 -22 -18 -5 -1 -6 -15 -6 -5 -5 -9 -4 -0 -0 -3 -4
-1 -22 -12 -1 -4 -2 -4 -2 -17 -20 -6 -13 -20 -14 -2 -0 -1 -0 -0 -0 -0 -5
Wind_Speed
5 8 8 7 9 9 10 9 9 10 11 10 11 9 9 8 6 5 4 6 6 7
10 8 7 6 10 11 10 12 11 12 12 11 10 11 10 8 6 7 8 8 9 12
14 14 12 14 11 12 14 16 15 12 13 10 10 9 9 10 8 11 10 13 16 15
16 17 17 18 17 16 18 17 17 15 13 12 13 12 14 13 14 15 14 13 13 13
15 13 15 18 18 18 18 19 18 17 17 17 17 17 17 15 14 13 13 10 10 12
15 15 13 18 18 20 18 18 18 18 18 18 18 17 17 18 16 14 17 17 16 13
20 19 19 19 20 22 22 21 20 20 18 20 19 20 22 21 20 20 19 18 17 19
25 27 26 26 25 26 26 24 24 24 24 23 28 28 29 26 25 24 22 22 22 24
32 33 30 28 28 29 27 27 30 30 33 36 33 33 36 35 33 31 29 27 27 29
36 35 34 33 33 31 31 32 33 34 38 37 36 32 36 39 36 nan nan 36 31 27
43 39 39 39 36 33 36 34 35 40 42 42 nan nan nan nan nan nan nan nan nan nan
45 41 45 40 37 39 39 41 42 40 44 46 42 45 39 41 nan nan nan nan nan nan
39 46 58 44 42 42 42 51 46 48 47 nan nan nan nan nan nan nan nan nan nan nan
55 51 53 45 nan nan 46 44 46 nan nan nan nan nan nan nan nan nan nan nan nan nan
Wind_Direction
222 209 209 198 200 195 211 206 219 245 257 259 266 266 248 246 268 282 303 329 326 307
236 241 228 220 206 212 222 230 234 240 249 248 258 267 269 270 276 284 280 292 293 281
241 240 232 229 242 237 232 244 256 260 266 263 258 265 282 279 281 270 273 279 274 278
253 252 243 245 239 239 239 237 253 259 260 260 256 261 265 267 272 271 270 279 286 287
255 257 258 256 252 252 253 252 257 255 256 254 257 263 264 267 259 265 278 281 269 265
254 251 255 257 256 255 256 257 257 254 257 260 263 270 272 276 273 272 279 290 286 279
253 254 252 250 255 261 259 260 260 259 265 269 273 276 273 270 277 276 278 276 278 279
236 242 246 250 251 253 256 253 256 259 258 265 264 261 263 263 276 276 272 271 274 274
234 236 235 241 247 253 253 257 261 261 258 260 261 261 266 268 268 263 264 266 265 275
245 245 240 237 242 248 252 252 257 260 261 263 263 262 263 266 264 nan nan 264 260 273
241 240 241 248 248 244 248 250 252 254 258 259 nan nan nan nan nan nan nan nan nan nan
235 228 234 241 244 248 249 250 253 256 261 262 253 244 248 265 nan nan nan nan nan nan
251 256 236 230 243 249 253 249 246 252 258 nan nan nan nan nan nan nan nan nan nan nan
246 250 243 250 nan nan 258 259 268 nan nan nan nan nan nan nan nan nan nan nan nan nan